When you browse on this site, cookies collect data to enhance your experience and personalize the content and advertising you see.
Visit our Privacy Policy to learn more. By continuing to use the site, you agree to this use of cookies and data.
  • In United Kingdom
  • List of Countries
  • For 7 days
  • Water Temperature
  • Weather Map
  • Weather Widgets
  • user-avatar
    Login

    Hourly Weather Kaprun

    Today, 10 December, Tuesday

    Time Temperature Precipitation Wind Pressure Humidity
    00:00 -7°C° 1 mm 2 mps 589 mmHg 94%
    01:00 -7°C° 0 mm 2 mps 590 mmHg 94%
    02:00 -7°C° 0.5 mm 2 mps 590 mmHg 94%
    03:00 -7°C° 0.5 mm 2 mps 591 mmHg 94%
    04:00 -8°C° 0.5 mm 2 mps 591 mmHg 94%
    05:00 -9°C° 1.1 mm 3 mps 592 mmHg 95%
    06:00 -9°C° 1.1 mm 3 mps 593 mmHg 95%
    07:00 -8°C° 0 mm 3 mps 594 mmHg 96%
    08:00 -9°C° 0.8 mm 3 mps 594 mmHg 94%
    09:00 -9°C° 0.8 mm 3 mps 594 mmHg 92%
    10:00 -10°C° 0.8 mm 4 mps 595 mmHg 91%
    11:00 -9°C° 0.1 mm 3 mps 595 mmHg 88%
    12:00 -10°C° 0.1 mm 3 mps 595 mmHg 84%
    13:00 -10°C° 0 mm 3 mps 596 mmHg 82%
    14:00 -12°C° 0 mm 3 mps 595 mmHg 85%
    15:00 -12°C° 0 mm 2 mps 594 mmHg 88%
    16:00 -14°C° 0 mm 2 mps 594 mmHg 91%
    17:00 -14°C° 0 mm 2 mps 594 mmHg 85%
    18:00 -15°C° 0 mm 2 mps 594 mmHg 79%
    19:00 -15°C° 0 mm 2 mps 594 mmHg 72%
    20:00 -15°C° 0 mm 2 mps 594 mmHg 62%
    21:00 -14°C° 0 mm 2 mps 594 mmHg 52%
    22:00 -13°C° 0 mm 2 mps 594 mmHg 41%
    23:00 -13°C° 0 mm 2 mps 594 mmHg 38%

    Tomorrow, 11 December, Wednesday

    Time Temperature Precipitation Wind Pressure Humidity
    00:00 -12°C° 0 mm 2 mps 594 mmHg 34%
    01:00 -12°C° 0 mm 2 mps 594 mmHg 31%
    02:00 -10°C° 0 mm 2 mps 594 mmHg 30%
    03:00 -10°C° 0 mm 2 mps 593 mmHg 29%
    04:00 -9°C° 0 mm 2 mps 593 mmHg 28%
    05:00 -9°C° 0 mm 2 mps 593 mmHg 28%
    06:00 -8°C° 0 mm 2 mps 593 mmHg 28%
    07:00 -8°C° 0 mm 2 mps 593 mmHg 28%
    08:00 -6°C° 0 mm 2 mps 593 mmHg 33%
    09:00 -2°C° 0 mm 1 mps 593 mmHg 38%
    10:00 -1°C° 0 mm 1 mps 594 mmHg 43%
    11:00 0°C° 0 mm 1 mps 593 mmHg 50%
    12:00 0°C° 0 mm 0 mps 593 mmHg 57%
    13:00 +1°C° 0 mm 0 mps 593 mmHg 63%
    14:00 -1°C° 0 mm 0 mps 591 mmHg 60%
    15:00 -3°C° 0 mm 0 mps 590 mmHg 57%
    16:00 -5°C° 0 mm 0 mps 588 mmHg 54%
    17:00 -6°C° 0 mm 0 mps 588 mmHg 51%
    18:00 -6°C° 0 mm 0 mps 588 mmHg 49%
    19:00 -7°C° 0 mm 0 mps 587 mmHg 46%
    20:00 -7°C° 0 mm 1 mps 587 mmHg 46%
    21:00 -8°C° 0 mm 1 mps 586 mmHg 45%
    22:00 -8°C° 0 mm 1 mps 586 mmHg 44%
    23:00 -9°C° 0 mm 1 mps 586 mmHg 49%

    Day after tomorrow, 12 December, Thursday

    Time Temperature Precipitation Wind Pressure Humidity
    00:00 -9°C° 0 mm 1 mps 585 mmHg 53%
    01:00 -9°C° 0 mm 1 mps 585 mmHg 58%
    02:00 -9°C° 0.2 mm 1 mps 585 mmHg 68%
    03:00 -9°C° 0.2 mm 1 mps 585 mmHg 79%
    04:00 -9°C° 0.2 mm 1 mps 584 mmHg 90%
    05:00 -10°C° 0.2 mm 2 mps 584 mmHg 91%
    06:00 -10°C° 0.2 mm 2 mps 584 mmHg 93%
    07:00 -10°C° 0.2 mm 2 mps 585 mmHg 94%
    08:00 -10°C° 0.2 mm 2 mps 585 mmHg 93%
    09:00 -9°C° 0.2 mm 2 mps 585 mmHg 92%
    10:00 -8°C° 0.2 mm 1 mps 585 mmHg 90%
    11:00 -8°C° 0.3 mm 2 mps 585 mmHg 89%
    12:00 -8°C° 0.3 mm 2 mps 585 mmHg 88%
    13:00 -8°C° 0.3 mm 2 mps 585 mmHg 86%
    14:00 -8°C° 0.2 mm 2 mps 585 mmHg 88%
    15:00 -8°C° 0.2 mm 1 mps 584 mmHg 91%
    16:00 -9°C° 0.2 mm 1 mps 584 mmHg 93%
    17:00 -10°C° 0 mm 1 mps 583 mmHg 92%
    18:00 -11°C° 0 mm 1 mps 583 mmHg 92%
    19:00 -12°C° 0 mm 1 mps 582 mmHg 91%
    20:00 -14°C° 0 mm 2 mps 582 mmHg 87%
    21:00 -15°C° 0 mm 2 mps 581 mmHg 83%
    22:00 -15°C° 0 mm 2 mps 581 mmHg 79%
    23:00 -16°C° 0 mm 3 mps 580 mmHg 79%

    13 December, Friday

    Time Temperature Precipitation Wind Pressure Humidity
    00:00 -16°C° 0 mm 3 mps 579 mmHg 80%
    01:00 -16°C° 0 mm 4 mps 579 mmHg 80%
    02:00 -16°C° 0 mm 4 mps 578 mmHg 81%
    03:00 -15°C° 0 mm 5 mps 578 mmHg 81%
    04:00 -14°C° 0 mm 5 mps 577 mmHg 82%
    05:00 -14°C° 0 mm 5 mps 577 mmHg 82%
    06:00 -14°C° 0 mm 5 mps 576 mmHg 82%
    07:00 -15°C° 0 mm 5 mps 576 mmHg 82%
    08:00 -14°C° 0 mm 5 mps 576 mmHg 81%
    09:00 -13°C° 0 mm 5 mps 576 mmHg 80%
    10:00 -13°C° 0 mm 5 mps 576 mmHg 80%
    11:00 -11°C° 0.1 mm 4 mps 576 mmHg 80%
    12:00 -10°C° 0.1 mm 4 mps 576 mmHg 80%
    13:00 -9°C° 0.1 mm 3 mps 575 mmHg 81%
    14:00 -9°C° 0.5 mm 3 mps 575 mmHg 85%
    15:00 -9°C° 0.5 mm 3 mps 575 mmHg 90%
    16:00 -9°C° 0.5 mm 2 mps 575 mmHg 95%
    17:00 -9°C° 0.6 mm 2 mps 576 mmHg 94%
    18:00 -9°C° 0.6 mm 2 mps 576 mmHg 93%
    19:00 -10°C° 0.6 mm 2 mps 577 mmHg 93%
    20:00 -10°C° 0 mm 2 mps 577 mmHg 92%
    21:00 -12°C° 0 mm 2 mps 577 mmHg 90%
    22:00 -13°C° 0 mm 2 mps 577 mmHg 89%
    23:00 -13°C° 0 mm 2 mps 578 mmHg 85%

    14 December, Saturday

    Time Temperature Precipitation Wind Pressure Humidity
    00:00 -13°C° 0 mm 2 mps 579 mmHg 81%
    01:00 -12°C° 0 mm 2 mps 579 mmHg 77%
    02:00 -12°C° 0 mm 2 mps 579 mmHg 74%
    03:00 -12°C° 0 mm 2 mps 580 mmHg 72%
    04:00 -12°C° 0 mm 2 mps 580 mmHg 69%
    05:00 -10°C° 0.2 mm 2 mps 581 mmHg 69%
    06:00 -9°C° 0.2 mm 2 mps 582 mmHg 70%
    07:00 -7°C° 0.2 mm 2 mps 583 mmHg 71%
    08:00 -6°C° 0.1 mm 2 mps 584 mmHg 74%
    09:00 -5°C° 0.1 mm 2 mps 584 mmHg 77%
    10:00 -5°C° 0.1 mm 2 mps 585 mmHg 81%
    11:00 -4°C° 0 mm 2 mps 585 mmHg 80%
    12:00 -3°C° 0 mm 2 mps 586 mmHg 79%
    13:00 -2°C° 0 mm 2 mps 586 mmHg 79%
    14:00 -3°C° 0.1 mm 2 mps 586 mmHg 78%
    15:00 -4°C° 0.1 mm 2 mps 586 mmHg 77%
    16:00 -5°C° 0.1 mm 2 mps 586 mmHg 76%
    17:00 -5°C° 0 mm 2 mps 586 mmHg 73%
    18:00 -5°C° 0 mm 2 mps 587 mmHg 70%
    19:00 -5°C° 0 mm 2 mps 587 mmHg 67%
    20:00 -5°C° 0 mm 2 mps 588 mmHg 66%
    21:00 -5°C° 0 mm 2 mps 588 mmHg 66%
    22:00 -5°C° 0 mm 2 mps 589 mmHg 65%
    23:00 -5°C° 0 mm 2 mps 589 mmHg 64%

    15 December, Sunday

    Time Temperature Precipitation Wind Pressure Humidity
    00:00 -5°C° 0 mm 2 mps 589 mmHg 64%
    01:00 -5°C° 0 mm 2 mps 589 mmHg 63%
    02:00 -5°C° 0 mm 2 mps 589 mmHg 64%
    03:00 -6°C° 0 mm 2 mps 589 mmHg 66%
    04:00 -6°C° 0 mm 2 mps 589 mmHg 68%
    05:00 -6°C° 0 mm 2 mps 589 mmHg 69%
    06:00 -6°C° 0 mm 2 mps 589 mmHg 71%
    07:00 -8°C° 0 mm 3 mps 588 mmHg 73%
    08:00 -7°C° 0 mm 3 mps 589 mmHg 75%
    09:00 -6°C° 0 mm 3 mps 590 mmHg 77%
    10:00 -5°C° 0 mm 3 mps 590 mmHg 79%
    11:00 -5°C° 0 mm 3 mps 590 mmHg 81%
    12:00 -4°C° 0 mm 3 mps 590 mmHg 83%
    13:00 -2°C° 0 mm 3 mps 591 mmHg 85%
    14:00 -4°C° 0 mm 3 mps 591 mmHg 86%
    15:00 -4°C° 0 mm 2 mps 591 mmHg 87%
    16:00 -5°C° 0 mm 2 mps 591 mmHg 88%
    17:00 -5°C° 0 mm 2 mps 591 mmHg 88%
    18:00 -6°C° 0 mm 2 mps 592 mmHg 88%
    19:00 -6°C° 0 mm 2 mps 592 mmHg 87%
    20:00 -6°C° 0 mm 2 mps 592 mmHg 87%
    21:00 -6°C° 0 mm 2 mps 592 mmHg 88%
    22:00 -6°C° 0 mm 2 mps 593 mmHg 88%
    23:00 -6°C° 0 mm 2 mps 593 mmHg 89%
    Show more